contact: severine.martini@mio.osupytheas.fr, dominique.lefevre@mio.osupytheas.fr
Project:EMSO Ligure-ouest http://www.emso-fr.org/EMSO-France
Sensor Aquadopp, Serial 05974 
DOI : "https://doi.org/10.17882/97948" 
Title:EMSO Western Ligurian : Data Bathybot Aquadopp sensor - deploiement 2023-04-28
Datetime,Profondeur,Latitude,Longitude,X_East,Y_North,Z_up,Amplitude_X,Amplitude_Y,Amplitude_Z,Batterie,Sound_Speed,Heading,Pitch,Roll,Pressure,Temperature,Fluorescence,Speed,Direction
time,m,degree_north,degree_east,m.s-1,m.s-1,m.s-1,1,1,1,Volt,m.s-1,degree,degree,degree,dbar,degree_C,arbitrary units (a.u.),m.s-1,degree
2023-10-24T00:03:13,2420,42.8014,5.9826,0.761,0.027,3.632,154.0,151.0,152.0,11.7,1504.7,271.5,-0.8,0.9,2485.53,13.3,801.0,0.761,88.0
2023-10-24T00:06:13,2420,42.8014,5.9826,0.353,0.305,3.596,155.0,151.0,152.0,11.8,1504.7,271.5,-0.8,0.8,2485.633,13.3,780.0,0.467,49.2
2023-10-24T00:09:13,2420,42.8014,5.9826,0.434,0.062,3.917,155.0,151.0,152.0,11.8,1504.7,271.4,-0.8,0.9,2485.39,13.3,774.0,0.438,81.9
2023-10-24T00:12:13,2420,42.8014,5.9826,0.648,0.0,3.705,155.0,151.0,152.0,11.8,1504.7,271.3,-0.8,0.9,2485.087,13.3,799.0,0.648,90.0
2023-10-24T00:15:13,2420,42.8014,5.9826,0.142,0.085,3.268,155.0,152.0,152.0,11.7,1504.7,271.5,-0.8,0.9,2485.324,13.29,792.0,0.165,59.1
2023-10-24T00:18:13,2420,42.8014,5.9826,0.379,-0.185,3.563,155.0,151.0,152.0,11.8,1504.7,271.4,-0.8,0.9,2485.305,13.29,920.0,0.422,116.0
2023-10-24T00:21:13,2420,42.8014,5.9826,0.604,0.042,3.695,155.0,151.0,152.0,11.8,1504.7,271.4,-0.8,0.8,2485.223,13.29,788.0,0.605,86.0
2023-10-24T00:24:13,2420,42.8014,5.9826,0.312,0.038,3.165,154.0,151.0,154.0,11.8,1504.7,271.5,-0.8,0.9,2485.486,13.29,789.0,0.314,83.1
2023-10-24T00:27:13,2420,42.8014,5.9826,0.618,0.277,3.302,155.0,151.0,152.0,11.8,1504.7,271.4,-0.8,0.9,2485.579,13.29,785.0,0.677,65.9
2023-10-24T00:30:13,2420,42.8014,5.9826,0.341,-0.085,3.731,155.0,151.0,152.0,11.8,1504.7,271.4,-0.8,0.9,2485.583,13.29,1297.0,0.351,104.0
2023-10-24T00:33:13,2420,42.8014,5.9826,0.558,0.282,3.362,155.0,151.0,152.0,11.8,1504.7,271.4,-0.8,0.9,2485.277,13.29,1742.0,0.625,63.2
2023-10-24T00:36:13,2420,42.8014,5.9826,0.538,0.289,3.342,155.0,151.0,152.0,11.8,1504.7,271.4,-0.8,0.9,2485.241,13.29,785.0,0.611,61.8
2023-10-24T00:39:13,2420,42.8014,5.9826,0.572,0.036,2.879,155.0,151.0,152.0,11.8,1504.7,271.3,-0.8,0.9,2485.46,13.29,947.0,0.573,86.4
2023-10-24T00:42:13,2420,42.8014,5.9826,0.92,0.023,3.412,155.0,151.0,152.0,11.8,1504.7,271.4,-0.8,0.9,2485.414,13.29,779.0,0.92,88.6
2023-10-24T00:45:13,2420,42.8014,5.9826,0.421,0.303,3.526,155.0,152.0,152.0,11.7,1504.7,271.4,-0.8,0.8,2485.261,13.29,835.0,0.519,54.3
2023-10-24T00:48:13,2420,42.8014,5.9826,0.275,0.287,3.664,155.0,151.0,152.0,11.8,1504.7,271.5,-0.8,0.9,2485.597,13.29,905.0,0.397,43.8
2023-10-24T00:51:13,2420,42.8014,5.9826,0.396,0.284,2.683,155.0,151.0,152.0,11.8,1504.7,271.5,-0.8,0.9,2485.478,13.29,787.0,0.487,54.3
2023-10-24T00:54:13,2420,42.8014,5.9826,0.029,-0.197,2.127,155.0,151.0,152.0,11.8,1504.7,271.4,-0.8,0.9,2485.436,13.3,787.0,0.199,171.6
2023-10-24T00:57:13,2420,42.8014,5.9826,0.593,0.048,3.795,155.0,151.0,152.0,11.8,1504.7,271.5,-0.8,0.9,2485.914,13.29,1202.0,0.595,85.4
2023-10-24T01:03:13,2420,42.8014,5.9826,-0.015,-0.46,1.748,154.0,151.0,152.0,11.8,1504.7,271.4,-0.8,0.9,2485.348,13.3,779.0,0.46,181.9
2023-10-24T01:06:13,2420,42.8014,5.9826,0.624,0.052,3.697,155.0,151.0,152.0,11.8,1504.7,271.5,-0.8,0.9,2485.462,13.29,1175.0,0.626,85.2
2023-10-24T01:09:13,2420,42.8014,5.9826,0.786,0.28,3.161,155.0,151.0,152.0,11.8,1504.7,271.5,-0.8,0.9,2485.366,13.29,788.0,0.834,70.4
2023-10-24T01:12:13,2420,42.8014,5.9826,0.706,-0.241,3.158,155.0,151.0,152.0,11.8,1504.7,271.3,-0.8,0.9,2485.575,13.29,1456.0,0.746,108.8
2023-10-24T01:15:13,2420,42.8014,5.9826,0.646,0.059,3.723,155.0,151.0,152.0,11.8,1504.7,271.4,-0.8,0.9,2485.414,13.29,792.0,0.649,84.8
2023-10-24T01:18:13,2420,42.8014,5.9826,0.554,0.262,2.497,156.0,151.0,166.0,11.8,1504.7,271.3,-0.8,0.8,2485.876,13.29,782.0,0.613,64.7
2023-10-24T01:21:13,2420,42.8014,5.9826,0.489,0.047,3.824,155.0,151.0,152.0,11.7,1504.7,271.5,-0.8,0.9,2485.713,13.29,791.0,0.491,84.5
2023-10-24T01:24:13,2420,42.8014,5.9826,0.704,0.27,3.207,155.0,151.0,152.0,11.8,1504.7,271.5,-0.8,0.8,2485.324,13.29,790.0,0.754,69.0
2023-10-24T01:27:13,2420,42.8014,5.9826,0.684,0.271,3.261,155.0,151.0,152.0,11.8,1504.7,271.4,-0.9,0.9,2485.305,13.29,776.0,0.736,68.4
2023-10-24T01:30:13,2420,42.8014,5.9826,0.536,0.303,3.413,155.0,151.0,152.0,11.8,1504.7,271.5,-0.8,0.9,2485.073,13.29,779.0,0.616,60.5
2023-10-24T01:33:13,2420,42.8014,5.9826,0.632,0.041,3.72,155.0,151.0,152.0,11.8,1504.7,271.4,-0.8,0.9,2485.719,13.29,789.0,0.633,86.3
2023-10-24T01:36:13,2420,42.8014,5.9826,0.512,0.298,3.433,155.0,151.0,152.0,11.7,1504.7,271.4,-0.8,0.9,2485.458,13.29,790.0,0.592,59.8
2023-10-24T01:39:13,2420,42.8014,5.9826,0.462,0.282,3.456,155.0,151.0,152.0,11.8,1504.7,271.4,-0.8,0.9,2485.193,13.29,780.0,0.541,58.6
2023-10-24T01:42:13,2420,42.8014,5.9826,0.841,0.03,3.487,155.0,151.0,152.0,11.7,1504.7,271.4,-0.8,0.9,2485.175,13.29,781.0,0.842,88.0
2023-10-24T01:45:13,2420,42.8014,5.9826,0.612,0.034,3.685,155.0,151.0,152.0,11.8,1504.7,271.3,-0.9,0.9,2485.346,13.29,777.0,0.613,86.8
2023-10-24T01:48:13,2420,42.8014,5.9826,0.496,0.054,3.857,155.0,151.0,152.0,11.8,1504.7,271.3,-0.8,0.9,2485.498,13.28,789.0,0.499,83.8
2023-10-24T01:51:13,2420,42.8014,5.9826,0.773,0.281,3.067,155.0,151.0,152.0,11.8,1504.7,271.3,-0.8,0.9,2485.769,13.29,778.0,0.822,70.0
2023-10-24T01:54:13,2420,42.8014,5.9826,0.791,0.252,2.216,156.0,151.0,152.0,11.7,1504.7,271.4,-0.8,0.9,2485.247,13.29,795.0,0.83,72.3
2023-10-24T01:57:12,2420,42.8014,5.9826,0.863,0.035,3.416,155.0,151.0,152.0,11.8,1504.7,271.3,-0.8,0.9,2485.346,13.29,1011.0,0.864,87.7
2023-10-24T02:03:13,2420,42.8014,5.9826,0.714,-0.391,2.845,156.0,152.0,152.0,11.8,1504.7,271.5,-0.8,0.9,2485.171,13.29,942.0,0.814,118.7
2023-10-24T02:06:13,2420,42.8014,5.9826,0.832,0.032,3.512,155.0,152.0,152.0,11.7,1504.7,271.3,-0.8,0.9,2485.211,13.29,785.0,0.833,87.8
2023-10-24T02:09:12,2420,42.8014,5.9826,0.338,0.4,2.908,155.0,151.0,152.0,11.8,1504.7,271.5,-0.8,0.9,2485.811,13.29,862.0,0.524,40.2
2023-10-24T02:12:12,2420,42.8014,5.9826,0.774,0.035,3.609,155.0,151.0,152.0,11.8,1504.7,271.3,-0.9,0.9,2485.311,13.29,787.0,0.775,87.4
2023-10-24T02:15:13,2420,42.8014,5.9826,0.584,0.292,3.28,155.0,151.0,152.0,11.8,1504.7,271.4,-0.8,0.9,2485.876,13.29,794.0,0.653,63.4
2023-10-24T02:18:13,2420,42.8014,5.9826,0.867,0.015,3.491,155.0,151.0,152.0,11.8,1504.7,271.4,-0.8,0.9,2485.735,13.29,943.0,0.867,89.0
2023-10-24T02:21:13,2420,42.8014,5.9826,0.334,0.046,4.04,155.0,151.0,152.0,11.8,1504.7,271.3,-0.8,0.9,2485.723,13.28,801.0,0.337,82.2
2023-10-24T02:24:13,2420,42.8014,5.9826,0.545,0.133,3.639,155.0,151.0,152.0,11.8,1504.7,271.4,-0.8,0.9,2485.394,13.28,791.0,0.561,76.3
2023-10-24T02:27:13,2420,42.8014,5.9826,1.048,-0.208,2.795,156.0,151.0,152.0,11.8,1504.7,271.5,-0.8,0.9,2485.187,13.28,788.0,1.068,101.2
2023-10-24T02:30:13,2420,42.8014,5.9826,1.038,0.039,3.333,155.0,151.0,152.0,11.8,1504.7,271.4,-0.8,0.9,2485.609,13.28,778.0,1.039,87.9
2023-10-24T02:33:13,2420,42.8014,5.9826,0.555,0.048,3.744,155.0,151.0,152.0,11.8,1504.7,271.5,-0.8,0.9,2485.691,13.28,788.0,0.557,85.1
2023-10-24T02:36:13,2420,42.8014,5.9826,0.665,0.271,3.212,155.0,151.0,152.0,11.8,1504.7,271.4,-0.8,0.9,2485.552,13.28,785.0,0.718,67.8
2023-10-24T02:39:13,2420,42.8014,5.9826,0.747,0.039,3.605,155.0,151.0,152.0,11.8,1504.7,271.4,-0.8,0.9,2485.398,13.28,801.0,0.748,87.0
2023-10-24T02:42:13,2420,42.8014,5.9826,0.622,0.29,3.272,155.0,151.0,152.0,11.8,1504.7,271.5,-0.8,0.9,2485.322,13.28,786.0,0.686,65.0
2023-10-24T02:45:13,2420,42.8014,5.9826,0.876,0.025,3.413,155.0,151.0,152.0,11.8,1504.7,271.4,-0.8,0.9,2485.872,13.28,777.0,0.876,88.4
2023-10-24T02:48:13,2420,42.8014,5.9826,1.025,0.034,3.251,155.0,151.0,152.0,11.8,1504.7,271.3,-0.8,0.9,2485.35,13.28,788.0,1.025,88.1
2023-10-24T02:51:13,2420,42.8014,5.9826,0.876,0.041,3.453,155.0,151.0,152.0,11.8,1504.7,271.5,-0.9,0.9,2485.749,13.28,1497.0,0.877,87.3
2023-10-24T02:54:13,2420,42.8014,5.9826,0.705,-0.197,3.118,155.0,151.0,152.0,11.8,1504.7,271.4,-0.8,0.9,2485.145,13.28,816.0,0.732,105.6
2023-10-24T02:57:13,2420,42.8014,5.9826,0.783,0.042,3.544,155.0,151.0,152.0,11.7,1504.7,271.4,-0.8,0.9,2485.54,13.28,800.0,0.784,86.9
2023-10-24T03:03:13,2420,42.8014,5.9826,0.912,0.045,3.382,156.0,151.0,152.0,11.8,1504.7,271.4,-0.8,0.9,2485.352,13.28,779.0,0.913,87.2
2023-10-24T03:06:13,2420,42.8014,5.9826,0.669,0.063,3.662,155.0,151.0,152.0,11.8,1504.7,271.3,-0.9,0.9,2485.637,13.28,1007.0,0.672,84.6
2023-10-24T03:09:13,2420,42.8014,5.9826,0.614,-0.57,2.637,155.0,153.0,152.0,11.8,1504.7,271.4,-0.8,0.9,2485.44,13.28,783.0,0.838,132.9
2023-10-24T03:12:13,2420,42.8014,5.9826,0.886,0.031,3.372,156.0,151.0,152.0,11.8,1504.7,271.3,-0.8,0.9,2485.328,13.28,785.0,0.887,88.0
2023-10-24T03:15:13,2420,42.8014,5.9826,0.775,0.025,3.463,155.0,151.0,152.0,11.8,1504.7,271.3,-0.8,0.9,2484.936,13.28,787.0,0.775,88.2
2023-10-24T03:18:13,2420,42.8014,5.9826,0.814,0.045,3.474,155.0,151.0,152.0,11.8,1504.7,271.3,-0.8,0.9,2485.452,13.28,783.0,0.815,86.8
2023-10-24T03:21:13,2420,42.8014,5.9826,0.707,0.029,3.618,155.0,151.0,152.0,11.8,1504.7,271.4,-0.8,0.9,2485.621,13.28,820.0,0.708,87.7
2023-10-24T03:24:13,2420,42.8014,5.9826,0.602,0.049,3.753,155.0,151.0,152.0,11.8,1504.7,271.4,-0.8,0.9,2485.57,13.28,787.0,0.604,85.3
2023-10-24T03:27:13,2420,42.8014,5.9826,0.5,0.072,3.829,155.0,151.0,152.0,11.8,1504.7,271.4,-0.8,0.9,2485.444,13.28,1242.0,0.505,81.8
2023-10-24T03:30:13,2420,42.8014,5.9826,0.558,0.018,3.744,155.0,151.0,152.0,11.8,1504.7,271.4,-0.8,0.9,2485.518,13.28,781.0,0.558,88.2
2023-10-24T03:33:13,2420,42.8014,5.9826,0.72,0.025,3.588,155.0,151.0,152.0,11.8,1504.7,271.4,-0.8,0.9,2485.267,13.28,783.0,0.72,88.0
2023-10-24T03:36:13,2420,42.8014,5.9826,0.852,0.006,3.455,155.0,151.0,152.0,11.8,1504.7,271.5,-0.8,0.9,2485.597,13.28,774.0,0.852,89.6
2023-10-24T03:39:13,2420,42.8014,5.9826,0.817,0.02,3.496,155.0,151.0,152.0,11.8,1504.7,271.4,-0.8,0.9,2485.52,13.28,792.0,0.817,88.6
2023-10-24T03:42:13,2420,42.8014,5.9826,0.389,0.047,3.982,155.0,151.0,152.0,11.8,1504.7,271.4,-0.8,0.9,2485.281,13.28,807.0,0.392,83.1
2023-10-24T03:45:13,2420,42.8014,5.9826,0.504,0.037,3.816,155.0,151.0,152.0,11.8,1504.7,271.4,-0.8,0.9,2485.251,13.28,3641.0,0.505,85.8
2023-10-24T03:48:13,2420,42.8014,5.9826,0.509,0.033,3.787,155.0,151.0,152.0,11.7,1504.7,271.4,-0.9,0.9,2485.512,13.28,791.0,0.51,86.3
2023-10-24T03:51:13,2420,42.8014,5.9826,0.643,0.053,3.647,155.0,151.0,152.0,11.8,1504.7,271.4,-0.8,0.9,2485.528,13.28,778.0,0.645,85.3
2023-10-24T03:54:13,2420,42.8014,5.9826,0.743,0.035,3.483,155.0,151.0,152.0,11.8,1504.7,271.3,-0.9,0.9,2485.131,13.28,775.0,0.744,87.3
2023-10-24T03:57:12,2420,42.8014,5.9826,0.66,0.04,3.631,155.0,152.0,152.0,11.8,1504.7,271.3,-0.8,0.9,2485.44,13.28,802.0,0.661,86.5
2023-10-24T04:03:13,2420,42.8014,5.9826,0.789,0.032,3.551,155.0,151.0,152.0,11.8,1504.7,271.5,-0.8,0.9,2485.205,13.28,779.0,0.79,87.7
2023-10-24T04:06:13,2420,42.8014,5.9826,0.62,0.051,3.722,155.0,151.0,152.0,11.8,1504.7,271.4,-0.8,0.9,2485.663,13.28,776.0,0.622,85.3
2023-10-24T04:09:13,2420,42.8014,5.9826,0.804,0.017,3.518,155.0,151.0,152.0,11.8,1504.7,271.4,-0.8,0.9,2485.769,13.28,2079.0,0.804,88.8
2023-10-24T04:12:13,2420,42.8014,5.9826,0.665,0.07,3.617,155.0,151.0,152.0,11.8,1504.7,271.3,-0.8,0.9,2485.703,13.28,785.0,0.669,84.0
2023-10-24T04:15:13,2420,42.8014,5.9826,0.944,0.051,3.359,155.0,151.0,152.0,11.8,1504.7,271.4,-0.8,0.9,2485.554,13.28,775.0,0.945,86.9
2023-10-24T04:18:13,2420,42.8014,5.9826,0.871,0.025,3.481,155.0,151.0,152.0,11.8,1504.7,271.4,-0.8,0.9,2485.412,13.28,1151.0,0.871,88.4
2023-10-24T04:21:13,2420,42.8014,5.9826,0.548,-0.184,3.301,155.0,151.0,152.0,11.8,1504.7,271.3,-0.8,0.9,2485.265,13.28,800.0,0.578,108.6
2023-10-24T04:24:13,2420,42.8014,5.9826,0.464,0.043,3.833,155.0,151.0,152.0,11.8,1504.7,271.4,-0.8,0.9,2485.263,13.28,787.0,0.466,84.7
2023-10-24T04:27:13,2420,42.8014,5.9826,0.551,-0.201,3.338,155.0,151.0,152.0,11.8,1504.7,271.3,-0.8,0.9,2485.384,13.28,813.0,0.586,110.0
2023-10-24T04:30:12,2420,42.8014,5.9826,0.514,0.042,3.836,155.0,151.0,152.0,11.8,1504.7,271.5,-0.8,0.9,2485.623,13.28,791.0,0.516,85.3
2023-10-24T04:33:13,2420,42.8014,5.9826,0.866,0.028,3.435,155.0,151.0,152.0,11.8,1504.7,271.6,-0.8,0.9,2485.56,13.28,830.0,0.866,88.1
2023-10-24T04:36:13,2420,42.8014,5.9826,0.728,0.01,3.536,155.0,151.0,152.0,11.8,1504.7,271.3,-0.9,0.9,2485.203,13.28,777.0,0.728,89.2
2023-10-24T04:39:13,2420,42.8014,5.9826,0.459,0.28,3.439,155.0,151.0,152.0,11.8,1504.7,271.4,-0.8,0.8,2485.38,13.28,1377.0,0.538,58.6
2023-10-24T04:42:13,2420,42.8014,5.9826,0.847,0.029,3.514,155.0,151.0,152.0,11.8,1504.7,271.3,-0.8,0.9,2485.364,13.28,791.0,0.848,88.0
2023-10-24T04:45:13,2420,42.8014,5.9826,0.525,-0.218,3.375,155.0,151.0,152.0,11.8,1504.7,271.4,-0.8,0.9,2485.49,13.28,791.0,0.568,112.5
2023-10-24T04:48:13,2420,42.8014,5.9826,0.44,0.051,3.895,155.0,151.0,152.0,11.8,1504.7,271.5,-0.8,0.8,2485.205,13.28,783.0,0.443,83.4
2023-10-24T04:51:13,2420,42.8014,5.9826,0.661,0.057,3.668,155.0,151.0,152.0,11.8,1504.7,271.3,-0.8,0.9,2485.279,13.28,794.0,0.663,85.1
2023-10-24T04:54:13,2420,42.8014,5.9826,0.36,0.048,3.971,155.0,151.0,152.0,11.8,1504.7,271.4,-0.8,0.9,2485.733,13.28,791.0,0.363,82.4
2023-10-24T04:57:13,2420,42.8014,5.9826,0.58,0.054,3.757,155.0,151.0,152.0,11.8,1504.7,271.4,-0.9,0.9,2485.747,13.28,787.0,0.582,84.7
2023-10-24T05:03:13,2420,42.8014,5.9826,0.531,0.055,3.811,155.0,151.0,152.0,11.7,1504.7,271.4,-0.9,0.9,2485.354,13.28,781.0,0.534,84.1
2023-10-24T05:06:13,2420,42.8014,5.9826,0.477,0.061,3.905,155.0,151.0,152.0,11.8,1504.7,271.5,-0.8,0.9,2485.679,13.28,786.0,0.481,82.7
2023-10-24T05:09:13,2420,42.8014,5.9826,0.476,0.403,3.215,155.0,151.0,152.0,11.8,1504.7,271.4,-0.9,0.9,2485.659,13.28,799.0,0.624,49.8
2023-10-24T05:12:13,2420,42.8014,5.9826,0.72,-0.109,2.372,155.0,152.0,152.0,11.8,1504.7,271.5,-0.8,0.9,2485.303,13.28,785.0,0.728,98.6
2023-10-24T05:15:13,2420,42.8014,5.9826,0.455,0.04,3.849,155.0,151.0,152.0,11.8,1504.7,271.4,-0.8,0.9,2485.723,13.28,1093.0,0.457,85.0
2023-10-24T05:18:13,2420,42.8014,5.9826,0.54,-0.224,3.38,155.0,151.0,152.0,11.8,1504.7,271.4,-0.8,0.9,2485.878,13.28,801.0,0.585,112.5
2023-10-24T05:21:13,2420,42.8014,5.9826,0.521,-0.194,3.375,155.0,151.0,152.0,11.8,1504.7,271.4,-0.8,0.9,2485.916,13.28,782.0,0.556,110.4
2023-10-24T05:24:13,2420,42.8014,5.9826,0.47,0.297,3.443,155.0,151.0,152.0,11.8,1504.7,271.4,-0.8,0.9,2485.627,13.28,785.0,0.556,57.7
2023-10-24T05:27:13,2420,42.8014,5.9826,0.31,-0.329,3.415,155.0,151.0,152.0,11.8,1504.7,271.5,-0.8,0.8,2485.743,13.28,779.0,0.452,136.7
2023-10-24T05:30:12,2420,42.8014,5.9826,0.53,0.521,2.971,154.0,151.0,152.0,11.8,1504.7,271.4,-0.8,0.8,2485.749,13.28,783.0,0.743,45.5
2023-10-24T05:33:13,2420,42.8014,5.9826,0.554,0.057,3.807,155.0,151.0,152.0,11.8,1504.7,271.4,-0.8,0.9,2485.526,13.28,787.0,0.557,84.1
2023-10-24T05:36:13,2420,42.8014,5.9826,0.425,0.3,3.501,155.0,151.0,152.0,11.7,1504.7,271.3,-0.8,0.9,2485.163,13.28,804.0,0.52,54.8
2023-10-24T05:39:13,2420,42.8014,5.9826,0.409,-0.207,3.484,155.0,151.0,152.0,11.8,1504.7,271.4,-0.9,0.8,2485.514,13.28,789.0,0.458,116.8
2023-10-24T05:42:13,2420,42.8014,5.9826,0.343,0.055,4.04,155.0,151.0,152.0,11.8,1504.7,271.5,-0.8,0.9,2485.305,13.29,776.0,0.347,80.9
2023-10-24T05:45:13,2420,42.8014,5.9826,0.478,0.279,3.418,155.0,151.0,152.0,11.8,1504.7,271.5,-0.8,0.9,2485.261,13.29,787.0,0.553,59.7
2023-10-24T05:48:13,2420,42.8014,5.9826,0.777,0.028,3.582,155.0,151.0,152.0,11.8,1504.7,271.3,-0.8,0.9,2485.829,13.29,2345.0,0.778,87.9
2023-10-24T05:51:13,2420,42.8014,5.9826,0.093,-0.208,2.944,155.0,151.0,152.0,11.8,1504.7,271.4,-0.9,0.9,2485.564,13.29,775.0,0.227,155.9
2023-10-24T05:54:13,2420,42.8014,5.9826,0.752,0.053,3.606,155.0,151.0,152.0,11.8,1504.7,271.3,-0.8,0.9,2485.516,13.29,2292.0,0.754,86.0
2023-10-24T05:57:13,2420,42.8014,5.9826,0.46,0.066,3.913,155.0,151.0,152.0,11.8,1504.7,271.3,-0.8,0.8,2485.518,13.29,792.0,0.465,81.8
2023-10-24T06:03:13,2420,42.8014,5.9826,0.138,0.057,3.346,155.0,151.0,152.0,11.8,1504.7,271.3,-0.8,0.9,2485.504,13.3,780.0,0.149,67.6
2023-10-24T06:06:13,2420,42.8014,5.9826,0.358,0.06,4.051,155.0,151.0,152.0,11.8,1504.7,271.3,-0.9,0.8,2485.352,13.3,774.0,0.363,80.5
2023-10-24T06:09:13,2420,42.8014,5.9826,0.575,0.064,3.744,155.0,151.0,152.0,11.8,1504.7,271.3,-0.8,0.9,2485.384,13.3,929.0,0.578,83.6
2023-10-24T06:12:13,2420,42.8014,5.9826,0.552,0.055,3.773,155.0,151.0,152.0,11.8,1504.7,271.4,-0.9,0.9,2485.436,13.3,791.0,0.555,84.3
2023-10-24T06:15:13,2420,42.8014,5.9826,0.623,-0.23,3.306,155.0,151.0,152.0,11.8,1504.7,271.4,-0.8,0.9,2485.249,13.3,787.0,0.664,110.3
2023-10-24T06:18:13,2420,42.8014,5.9826,0.109,0.052,3.407,155.0,151.0,152.0,11.8,1504.7,271.4,-0.8,0.9,2485.191,13.3,777.0,0.12,64.5
2023-10-24T06:21:13,2420,42.8014,5.9826,0.907,0.256,3.043,155.0,151.0,152.0,11.7,1504.7,271.4,-0.9,0.9,2485.237,13.3,794.0,0.942,74.2
2023-10-24T06:24:13,2420,42.8014,5.9826,0.993,0.027,3.336,155.0,151.0,152.0,11.8,1504.7,271.4,-0.8,0.9,2485.675,13.3,779.0,0.993,88.4
2023-10-24T06:27:13,2420,42.8014,5.9826,0.653,0.03,3.731,155.0,151.0,152.0,11.8,1504.7,271.3,-0.8,0.9,2485.119,13.29,779.0,0.654,87.4
2023-10-24T06:30:13,2420,42.8014,5.9826,0.291,0.035,3.187,155.0,151.0,152.0,11.8,1504.7,271.3,-0.8,0.9,2485.237,13.3,777.0,0.293,83.1
2023-10-24T06:33:13,2420,42.8014,5.9826,0.45,0.29,2.593,155.0,151.0,152.0,11.8,1504.7,271.3,-0.8,0.9,2485.556,13.29,2376.0,0.535,57.2
2023-10-24T06:36:13,2420,42.8014,5.9826,0.391,0.291,3.6,155.0,151.0,152.0,11.8,1504.7,271.3,-0.8,0.9,2485.163,13.29,3666.0,0.487,53.3
2023-10-24T06:39:13,2420,42.8014,5.9826,0.278,0.04,3.212,155.0,151.0,152.0,11.8,1504.7,271.4,-0.8,0.9,2485.295,13.29,3242.0,0.281,81.8
2023-10-24T06:42:13,2420,42.8014,5.9826,0.829,0.039,3.537,155.0,151.0,152.0,11.8,1504.7,271.4,-0.8,0.9,2485.705,13.29,4073.0,0.83,87.3
2023-10-24T06:45:13,2420,42.8014,5.9826,0.661,0.15,3.052,155.0,151.0,152.0,11.8,1504.7,271.4,-0.8,0.8,2485.378,13.29,3100.0,0.678,77.2
2023-10-24T06:48:13,2420,42.8014,5.9826,0.758,0.044,3.548,155.0,152.0,152.0,11.8,1504.7,271.4,-0.9,0.9,2485.562,13.29,2948.0,0.759,86.7
2023-10-24T06:51:13,2420,42.8014,5.9826,0.578,0.055,3.782,155.0,151.0,152.0,11.8,1504.7,271.4,-0.9,0.9,2485.522,13.29,2706.0,0.581,84.6
2023-10-24T06:54:13,2420,42.8014,5.9826,0.844,0.047,3.533,155.0,151.0,152.0,11.8,1504.7,271.4,-0.8,0.9,2485.721,13.29,2898.0,0.845,86.8
2023-10-24T06:57:13,2420,42.8014,5.9826,0.537,0.078,3.858,155.0,151.0,152.0,11.8,1504.7,271.3,-0.8,0.9,2485.727,13.29,2654.0,0.543,81.7
2023-10-24T07:03:13,2420,42.8014,5.9826,0.675,-0.204,3.245,155.0,151.0,152.0,11.8,1504.7,271.4,-0.9,0.8,2485.524,13.29,3847.0,0.705,106.8
2023-10-24T07:06:13,2420,42.8014,5.9826,0.224,-0.471,3.278,155.0,151.0,152.0,11.8,1504.7,271.5,-0.8,0.9,2485.599,13.3,877.0,0.521,154.6
2023-10-24T07:09:13,2420,42.8014,5.9826,0.179,-0.416,3.32,155.0,151.0,152.0,11.8,1504.7,271.3,-0.9,0.9,2485.444,13.3,782.0,0.453,156.7
2023-10-24T07:12:13,2420,42.8014,5.9826,0.725,0.045,3.625,155.0,151.0,152.0,11.8,1504.7,271.3,-0.9,0.9,2485.458,13.3,814.0,0.726,86.5
2023-10-24T07:15:13,2420,42.8014,5.9826,-0.251,0.802,2.424,155.0,151.0,152.0,11.8,1504.7,271.3,-0.8,0.9,2485.458,13.3,795.0,0.84,342.6
2023-10-24T07:18:13,2420,42.8014,5.9826,0.364,-0.187,3.585,155.0,151.0,152.0,11.8,1504.7,271.4,-0.8,0.9,2485.322,13.3,782.0,0.409,117.2
2023-10-24T07:21:13,2420,42.8014,5.9826,0.596,-0.214,3.362,155.0,151.0,152.0,11.8,1504.7,271.3,-0.9,0.9,2485.346,13.3,792.0,0.633,109.7
2023-10-24T07:24:13,2420,42.8014,5.9826,0.691,-0.207,3.192,155.0,151.0,152.0,11.8,1504.7,271.3,-0.9,0.9,2485.444,13.3,781.0,0.721,106.7
2023-10-24T07:27:13,2420,42.8014,5.9826,0.471,0.045,3.032,155.0,151.0,152.0,11.8,1504.7,271.4,-0.8,0.9,2485.33,13.3,782.0,0.473,84.5
2023-10-24T07:30:13,2420,42.8014,5.9826,0.721,0.034,3.63,155.0,151.0,152.0,11.8,1504.8,271.4,-0.8,0.9,2485.817,13.31,859.0,0.722,87.3
2023-10-24T07:33:13,2420,42.8014,5.9826,0.861,0.035,3.455,155.0,151.0,152.0,11.7,1504.8,271.3,-0.8,0.9,2485.474,13.31,773.0,0.862,87.7
2023-10-24T07:36:13,2420,42.8014,5.9826,0.81,0.035,3.508,155.0,151.0,152.0,11.8,1504.8,271.4,-0.8,0.9,2485.239,13.31,782.0,0.811,87.5
2023-10-24T07:39:13,2420,42.8014,5.9826,0.631,0.057,3.734,155.0,151.0,152.0,11.8,1504.8,271.3,-0.8,0.9,2485.159,13.31,793.0,0.634,84.8
2023-10-24T07:42:13,2420,42.8014,5.9826,0.357,0.069,3.084,155.0,151.0,152.0,11.8,1504.7,271.3,-0.8,0.9,2485.468,13.3,782.0,0.364,79.1
2023-10-24T07:45:13,2420,42.8014,5.9826,0.435,-0.205,3.483,155.0,151.0,152.0,11.8,1504.8,271.4,-0.8,0.9,2485.219,13.31,1683.0,0.481,115.2
2023-10-24T07:48:13,2420,42.8014,5.9826,0.191,0.558,3.327,155.0,151.0,152.0,11.8,1504.8,271.4,-0.9,0.9,2485.408,13.31,787.0,0.59,18.9
2023-10-24T07:51:13,2420,42.8014,5.9826,0.444,0.301,3.508,155.0,151.0,152.0,11.8,1504.8,271.4,-0.9,0.9,2485.613,13.31,785.0,0.536,55.9
2023-10-24T07:54:13,2420,42.8014,5.9826,-0.022,0.074,3.519,155.0,151.0,152.0,11.8,1504.7,271.4,-0.8,0.9,2485.261,13.3,816.0,0.077,343.4
2023-10-24T07:57:12,2420,42.8014,5.9826,0.401,-0.206,3.57,155.0,151.0,152.0,11.7,1504.7,271.2,-0.9,0.9,2485.044,13.3,793.0,0.451,117.2
2023-10-24T08:03:13,2420,42.8014,5.9826,0.407,0.067,3.97,155.0,151.0,152.0,11.8,1504.7,271.4,-0.8,0.9,2485.852,13.29,789.0,0.412,80.7
2023-10-24T08:06:12,2420,42.8014,5.9826,0.433,-0.212,3.478,155.0,151.0,152.0,11.8,1504.7,271.4,-0.8,0.9,2485.117,13.29,778.0,0.482,116.1
2023-10-24T08:09:13,2420,42.8014,5.9826,0.584,-0.699,2.447,155.0,151.0,152.0,11.8,1504.7,271.4,-0.8,0.9,2485.368,13.29,792.0,0.911,140.1
2023-10-24T08:12:13,2420,42.8014,5.9826,0.224,0.279,3.703,155.0,151.0,152.0,11.8,1504.7,271.3,-0.8,0.9,2485.406,13.29,785.0,0.358,38.8
2023-10-24T08:15:13,2420,42.8014,5.9826,0.694,0.057,3.688,155.0,151.0,152.0,11.8,1504.7,271.3,-0.8,0.9,2485.263,13.29,781.0,0.696,85.3
2023-10-24T08:18:13,2420,42.8014,5.9826,0.561,0.038,3.802,155.0,151.0,152.0,11.7,1504.7,271.4,-0.8,0.9,2485.336,13.29,788.0,0.562,86.1
2023-10-24T08:21:13,2420,42.8014,5.9826,0.721,0.272,3.209,155.0,151.0,152.0,11.8,1504.7,271.4,-0.8,0.9,2485.424,13.29,783.0,0.771,69.3
2023-10-24T08:24:13,2420,42.8014,5.9826,0.323,0.318,3.56,155.0,151.0,152.0,11.8,1504.7,271.3,-0.8,0.9,2485.205,13.29,793.0,0.453,45.4
2023-10-24T08:27:13,2420,42.8014,5.9826,0.509,0.063,3.881,155.0,151.0,152.0,11.8,1504.7,271.4,-0.8,0.9,2485.629,13.28,790.0,0.513,82.9
2023-10-24T08:30:13,2420,42.8014,5.9826,0.608,0.384,3.134,154.0,151.0,152.0,11.8,1504.7,271.4,-0.8,0.9,2485.548,13.28,781.0,0.719,57.7
2023-10-24T08:33:13,2420,42.8014,5.9826,0.371,0.289,3.593,155.0,151.0,152.0,11.8,1504.7,271.3,-0.8,0.9,2485.398,13.28,779.0,0.47,52.1
2023-10-24T08:36:13,2420,42.8014,5.9826,0.462,0.06,3.968,155.0,151.0,152.0,11.8,1504.7,271.4,-0.8,0.9,2485.38,13.28,768.0,0.466,82.6
2023-10-24T08:39:13,2420,42.8014,5.9826,0.617,-0.209,3.305,155.0,151.0,152.0,11.8,1504.7,271.4,-0.8,0.9,2485.285,13.28,776.0,0.651,108.7
2023-10-24T08:42:13,2420,42.8014,5.9826,0.304,0.187,3.833,155.0,151.0,152.0,11.8,1504.7,271.4,-0.9,0.9,2485.522,13.28,780.0,0.357,58.4
2023-10-24T08:45:13,2420,42.8014,5.9826,0.204,-0.696,2.87,155.0,160.0,152.0,11.8,1504.7,271.5,-0.8,0.9,2485.412,13.28,782.0,0.725,163.7
2023-10-24T08:48:13,2420,42.8014,5.9826,0.615,0.048,3.73,155.0,151.0,152.0,11.8,1504.7,271.4,-0.8,0.9,2485.504,13.28,782.0,0.617,85.5
2023-10-24T08:51:13,2420,42.8014,5.9826,0.52,0.3,3.378,154.0,151.0,152.0,11.8,1504.7,271.5,-0.8,0.9,2485.47,13.28,779.0,0.6,60.0
2023-10-24T08:54:13,2420,42.8014,5.9826,0.606,0.05,3.739,155.0,151.0,152.0,11.8,1504.7,271.3,-0.8,0.9,2485.257,13.28,781.0,0.608,85.3
2023-10-24T08:57:13,2420,42.8014,5.9826,0.782,0.302,3.14,156.0,151.0,152.0,11.7,1504.7,271.3,-0.8,0.9,2485.41,13.28,781.0,0.838,68.9
2023-10-24T09:03:13,2420,42.8014,5.9826,0.91,-0.098,3.249,155.0,151.0,152.0,11.8,1504.7,271.3,-0.9,0.8,2485.478,13.28,845.0,0.915,96.1
2023-10-24T09:06:13,2420,42.8014,5.9826,0.794,0.272,3.143,155.0,151.0,152.0,11.8,1504.7,271.3,-0.8,0.9,2485.408,13.28,776.0,0.839,71.1